Emporia, KS

7:58 PM CST on November 22, 2019 (GMT -0600)
Emporia Municipal

Weather History for KEMP - October, 2019

Change the Weather History Date:

Tuesday, October 22, 2019

  Actual Average Record
Temperature  
Mean Temperature 50 °F 55 °F  
Max Temperature 63 °F 67 °F 84 °F (2003)
Min Temperature 38 °F 43 °F 28 °F (2006)
Degree Days  
Heating Degree Days 14 11  
Month to date heating degree days 201 167  
Since 1 July heating degree days 201 217  
Cooling Degree Days 0 0  
Month to date cooling degree days 24 29  
Year to date cooling degree days 1486 1402  
Moisture  
Dew Point 31 °F    
Average Humidity 52    
Maximum Humidity 71    
Minimum Humidity 27    
Precipitation  
Precipitation 0.00 in 0.10 in 0.69 in (2007)
Month to date precipitation 1.91 2.16  
Year to date precipitation 40.97 32.16  
Sea Level Pressure  
Sea Level Pressure 30.03 in    
Wind  
Wind Speed 10 mph ()    
Max Wind Speed 22 mph    
Max Gust Speed 34 mph    
Visibility 10.0 miles    
Events      
T = Trace of Precipitation, MM = Missing Value Source: Averaged Metar Reports

Daily Weather History Graph

Daily Weather History Graph

Search for Another Location

Airport or City:

Astronomy

Oct. 22, 2019 Rise Set
Actual Time 7:40 AM CDT 6:37 PM CDT
Civil Twilight 7:13 AM CDT 7:04 PM CDT
Nautical Twilight 6:42 AM CDT 7:35 PM CDT
Astronomical Twilight 6:11 AM CDT 8:05 PM CDT
Moon 12:58 AM CDT (10/22) 3:41 PM CDT (10/22)
Length of Visible Light 11h 50m
Length of Day
10h 57m
Last Quarter, 37% of the Moon is Illuminated
Oct 22
Last Quarter
Oct 27
New
Nov 4
First Quarter
Nov 12
Full
Nov 19
Last Quarter

Hourly Weather History & Observations

Time (CDT) Temp. Windchill Dew Point Humidity Pressure Visibility Wind Dir Wind Speed Gust Speed Precip Events Conditions
12:53 AM 46.0 °F 41.0 °F 32.0 °F 58% 29.96 in 10.0 mi West 10.4 mph 21.9 mph N/A   Clear
1:53 AM 45.0 °F 39.7 °F 30.0 °F 56% 29.98 in 10.0 mi WNW 10.4 mph - N/A   Clear
2:53 AM 42.1 °F 36.6 °F 30.0 °F 62% 29.99 in 10.0 mi West 9.2 mph - N/A   Clear
3:53 AM 41.0 °F 35.2 °F 30.0 °F 65% 30.01 in 10.0 mi West 9.2 mph - N/A   Clear
4:53 AM 42.1 °F 35.2 °F 28.9 °F 60% 30.02 in 10.0 mi West 12.7 mph 21.9 mph N/A   Clear
5:53 AM 42.1 °F 36.6 °F 28.9 °F 60% 30.04 in 10.0 mi West 9.2 mph 19.6 mph N/A   Clear
6:53 AM 39.0 °F 32.3 °F 30.0 °F 70% 30.06 in 10.0 mi West 10.4 mph - N/A   Clear
8:53 AM 43.0 °F 36.8 °F 30.0 °F 60% 30.09 in 10.0 mi West 11.5 mph 21.9 mph N/A   Clear
9:53 AM 46.9 °F - 30.9 °F 54% 30.11 in 10.0 mi WNW 13.8 mph 23.0 mph N/A   Clear
10:53 AM 52.0 °F - 32.0 °F 47% 30.11 in 10.0 mi WNW 12.7 mph - N/A   Clear
11:53 AM 55.9 °F - 32.0 °F 40% 30.10 in 10.0 mi WNW 16.1 mph 27.6 mph N/A   Clear
12:53 PM 59.0 °F - 33.1 °F 38% 30.09 in 10.0 mi NW 17.3 mph 29.9 mph N/A   Clear
1:53 PM 60.1 °F - 30.9 °F 33% 30.06 in 10.0 mi WNW 18.4 mph 29.9 mph N/A   Clear
2:53 PM 62.1 °F - 28.9 °F 29% 30.04 in 10.0 mi WNW 15.0 mph 34.5 mph N/A   Clear
3:53 PM 63.0 °F - 28.9 °F 28% 30.03 in 10.0 mi West 17.3 mph 29.9 mph N/A   Scattered Clouds
4:53 PM 62.1 °F - 28.9 °F 29% 30.03 in 10.0 mi West 10.4 mph 24.2 mph N/A   Partly Cloudy
5:53 PM 60.1 °F - 28.9 °F 31% 30.02 in 10.0 mi West 8.1 mph - N/A   Partly Cloudy
6:53 PM 52.0 °F - 32.0 °F 47% 30.02 in 10.0 mi SW 6.9 mph - N/A   Clear
7:53 PM 46.0 °F 42.5 °F 34.0 °F 63% 30.01 in 10.0 mi South 6.9 mph - N/A   Clear
8:53 PM 44.1 °F 40.1 °F 35.1 °F 71% 30.01 in 10.0 mi SSW 6.9 mph - N/A   Clear
9:53 PM 44.1 °F 38.1 °F 35.1 °F 71% 29.99 in 10.0 mi South 11.5 mph - N/A   Clear
10:53 PM 45.0 °F 39.7 °F 35.1 °F 68% 29.99 in 10.0 mi South 10.4 mph - N/A   Overcast
11:53 PM 46.0 °F 41.0 °F 35.1 °F 66% 29.96 in 10.0 mi South 10.4 mph - N/A   Clear